Location: Gdynia
(54.5193°N, 18.5395°E)
Time: 11:51:07
(UTC+02:00)

ISS - Pass Details

Date: 26 January 2019
Orbit: 411 x 421 km, 51.6° (Epoch: 18 October)

Event Time Altitude Azimuth Distance (km) Brightness Sun altitude
Rises 17:41:22 0° 223° (SW) 2,408 1.1 -12.7°
Reaches altitude 10° 17:43:43 10° 209° (SSW) 1,545 -0.3 -13.0°
Maximum altitude 17:46:36 25° 153° (SSE) 934 -2.1 -13.4°
Enters shadow 17:48:04 19° 116° (ESE) 1,124 -2.0 -13.6°
